• Em Portugal
  • Lista de países
  • Para 7 dias
  • Temperatura da água
  • Mapas de satélite
  • Mapa do tempo
  • Widgets de tempo
  • user-avatar
    Iniciar Sessão

    Previsão horária em Karbala

    Hoje, 19 Setembro, Terça-feira

    Tempo Temperatura Precipitação Vento Pressão Humidade
    00:00 +39°C° 0 mm 3 m/s 750 mmHg 9%
    01:00 +38°C° 0 mm 3 m/s 750 mmHg 10%
    02:00 +37°C° 0 mm 3 m/s 750 mmHg 10%
    03:00 +36°C° 0 mm 2 m/s 750 mmHg 12%
    04:00 +36°C° 0 mm 2 m/s 751 mmHg 12%
    05:00 +35°C° 0 mm 2 m/s 751 mmHg 13%
    06:00 +35°C° 0 mm 2 m/s 751 mmHg 13%
    07:00 +37°C° 0 mm 2 m/s 751 mmHg 12%
    08:00 +40°C° 0 mm 2 m/s 752 mmHg 10%
    09:00 +43°C° 0 mm 3 m/s 752 mmHg 8%
    10:00 +45°C° 0 mm 3 m/s 752 mmHg 8%
    11:00 +46°C° 0 mm 2 m/s 752 mmHg 7%
    12:00 +48°C° 0 mm 2 m/s 752 mmHg 7%
    13:00 +48°C° 0 mm 3 m/s 751 mmHg 6%
    14:00 +50°C° 0 mm 3 m/s 751 mmHg 6%
    15:00 +50°C° 0 mm 3 m/s 750 mmHg 6%
    16:00 +48°C° 0 mm 3 m/s 750 mmHg 6%
    17:00 +46°C° 0 mm 3 m/s 750 mmHg 7%
    18:00 +45°C° 0 mm 3 m/s 750 mmHg 7%
    19:00 +43°C° 0 mm 3 m/s 750 mmHg 8%
    20:00 +42°C° 0 mm 3 m/s 750 mmHg 9%
    21:00 +40°C° 0 mm 2 m/s 751 mmHg 9%
    22:00 +40°C° 0 mm 2 m/s 751 mmHg 10%
    23:00 +40°C° 0 mm 2 m/s 750 mmHg 10%

    Amanhã, 20 Setembro, Quarta-feira

    Tempo Temperatura Precipitação Vento Pressão Humidade
    00:00 +39°C° 0 mm 2 m/s 750 mmHg 10%
    01:00 +38°C° 0 mm 2 m/s 750 mmHg 11%
    02:00 +38°C° 0 mm 2 m/s 750 mmHg 11%
    03:00 +37°C° 0 mm 2 m/s 750 mmHg 11%
    04:00 +36°C° 0 mm 2 m/s 750 mmHg 12%
    05:00 +35°C° 0 mm 1 m/s 750 mmHg 12%
    06:00 +34°C° 0 mm 1 m/s 751 mmHg 13%
    07:00 +38°C° 0 mm 2 m/s 751 mmHg 11%
    08:00 +42°C° 0 mm 3 m/s 751 mmHg 9%
    09:00 +44°C° 0 mm 4 m/s 751 mmHg 7%
    10:00 +47°C° 0 mm 4 m/s 751 mmHg 7%
    11:00 +48°C° 0 mm 4 m/s 751 mmHg 6%
    12:00 +50°C° 0 mm 4 m/s 751 mmHg 5%
    13:00 +50°C° 0 mm 4 m/s 750 mmHg 5%
    14:00 +51°C° 0 mm 3 m/s 750 mmHg 5%
    15:00 +51°C° 0 mm 3 m/s 749 mmHg 5%
    16:00 +48°C° 0 mm 2 m/s 749 mmHg 6%
    17:00 +46°C° 0 mm 2 m/s 749 mmHg 6%
    18:00 +45°C° 0 mm 2 m/s 749 mmHg 7%
    19:00 +43°C° 0 mm 2 m/s 749 mmHg 7%
    20:00 +42°C° 0 mm 2 m/s 749 mmHg 8%
    21:00 +42°C° 0 mm 3 m/s 749 mmHg 8%
    22:00 +40°C° 0 mm 2 m/s 749 mmHg 9%
    23:00 +39°C° 0 mm 2 m/s 749 mmHg 9%

    Depois de amanhã, 21 Setembro, Quinta-feira

    Tempo Temperatura Precipitação Vento Pressão Humidade
    00:00 +38°C° 0 mm 2 m/s 749 mmHg 10%
    01:00 +38°C° 0 mm 2 m/s 749 mmHg 10%
    02:00 +38°C° 0 mm 2 m/s 749 mmHg 10%
    03:00 +37°C° 0 mm 2 m/s 749 mmHg 11%
    04:00 +37°C° 0 mm 2 m/s 749 mmHg 11%
    05:00 +37°C° 0 mm 3 m/s 749 mmHg 12%
    06:00 +36°C° 0 mm 3 m/s 750 mmHg 13%
    07:00 +38°C° 0 mm 4 m/s 750 mmHg 12%
    08:00 +41°C° 0 mm 4 m/s 750 mmHg 11%
    09:00 +43°C° 0 mm 5 m/s 751 mmHg 11%
    10:00 +45°C° 0 mm 4 m/s 750 mmHg 10%
    11:00 +46°C° 0 mm 3 m/s 750 mmHg 8%
    12:00 +48°C° 0 mm 3 m/s 750 mmHg 7%
    13:00 +50°C° 0 mm 3 m/s 749 mmHg 7%
    14:00 +50°C° 0 mm 4 m/s 749 mmHg 7%
    15:00 +50°C° 0 mm 4 m/s 748 mmHg 6%
    16:00 +49°C° 0 mm 4 m/s 748 mmHg 8%
    17:00 +47°C° 0 mm 4 m/s 748 mmHg 9%
    18:00 +45°C° 0 mm 4 m/s 748 mmHg 10%
    19:00 +44°C° 0 mm 4 m/s 748 mmHg 12%
    20:00 +42°C° 0 mm 5 m/s 749 mmHg 13%
    21:00 +41°C° 0 mm 5 m/s 749 mmHg 15%
    22:00 +41°C° 0 mm 5 m/s 749 mmHg 17%
    23:00 +40°C° 0 mm 6 m/s 749 mmHg 20%

    22 Setembro, Sexta-feira

    Tempo Temperatura Precipitação Vento Pressão Humidade
    00:00 +39°C° 0 mm 6 m/s 749 mmHg 22%
    01:00 +38°C° 0 mm 6 m/s 749 mmHg 24%
    02:00 +38°C° 0 mm 6 m/s 749 mmHg 25%
    03:00 +36°C° 0 mm 6 m/s 749 mmHg 26%
    04:00 +36°C° 0 mm 5 m/s 749 mmHg 27%
    05:00 +35°C° 0 mm 5 m/s 750 mmHg 28%
    06:00 +35°C° 0 mm 5 m/s 750 mmHg 29%
    07:00 +36°C° 0 mm 6 m/s 751 mmHg 26%
    08:00 +39°C° 0 mm 6 m/s 751 mmHg 23%
    09:00 +41°C° 0 mm 7 m/s 751 mmHg 20%
    10:00 +43°C° 0 mm 7 m/s 751 mmHg 18%
    11:00 +45°C° 0 mm 7 m/s 751 mmHg 16%
    12:00 +46°C° 0 mm 6 m/s 751 mmHg 14%
    13:00 +46°C° 0 mm 6 m/s 750 mmHg 13%
    14:00 +47°C° 0 mm 6 m/s 750 mmHg 13%
    15:00 +47°C° 0 mm 5 m/s 750 mmHg 13%
    16:00 +46°C° 0 mm 5 m/s 750 mmHg 15%
    17:00 +43°C° 0 mm 5 m/s 750 mmHg 16%
    18:00 +42°C° 0 mm 5 m/s 750 mmHg 18%
    19:00 +41°C° 0 mm 5 m/s 751 mmHg 19%
    20:00 +40°C° 0 mm 4 m/s 751 mmHg 20%
    21:00 +38°C° 0 mm 4 m/s 751 mmHg 21%
    22:00 +38°C° 0 mm 4 m/s 752 mmHg 21%
    23:00 +37°C° 0 mm 4 m/s 752 mmHg 22%

    23 Setembro, Sábado

    Tempo Temperatura Precipitação Vento Pressão Humidade
    00:00 +36°C° 0 mm 4 m/s 752 mmHg 22%
    01:00 +36°C° 0 mm 4 m/s 752 mmHg 24%
    02:00 +35°C° 0 mm 4 m/s 752 mmHg 25%
    03:00 +35°C° 0 mm 4 m/s 752 mmHg 26%
    04:00 +34°C° 0 mm 4 m/s 752 mmHg 27%
    05:00 +34°C° 0 mm 4 m/s 752 mmHg 28%
    06:00 +34°C° 0 mm 5 m/s 752 mmHg 30%
    07:00 +35°C° 0 mm 5 m/s 753 mmHg 26%
    08:00 +38°C° 0 mm 6 m/s 753 mmHg 23%
    09:00 +39°C° 0 mm 6 m/s 754 mmHg 20%
    10:00 +41°C° 0 mm 6 m/s 753 mmHg 17%
    11:00 +42°C° 0 mm 6 m/s 753 mmHg 15%
    12:00 +45°C° 0 mm 5 m/s 753 mmHg 13%
    13:00 +45°C° 0 mm 6 m/s 753 mmHg 11%
    14:00 +46°C° 0 mm 6 m/s 752 mmHg 10%
    15:00 +46°C° 0 mm 6 m/s 752 mmHg 9%
    16:00 +45°C° 0 mm 6 m/s 752 mmHg 9%
    17:00 +43°C° 0 mm 5 m/s 752 mmHg 9%
    18:00 +41°C° 0 mm 5 m/s 752 mmHg 9%
    19:00 +40°C° 0 mm 4 m/s 753 mmHg 10%
    20:00 +38°C° 0 mm 4 m/s 753 mmHg 11%
    21:00 +37°C° 0 mm 4 m/s 753 mmHg 12%
    22:00 +37°C° 0 mm 4 m/s 753 mmHg 13%
    23:00 +36°C° 0 mm 5 m/s 753 mmHg 15%

    24 Setembro, Domingo

    Tempo Temperatura Precipitação Vento Pressão Humidade
    00:00 +35°C° 0 mm 5 m/s 753 mmHg 16%
    01:00 +35°C° 0 mm 5 m/s 753 mmHg 18%
    02:00 +34°C° 0 mm 4 m/s 753 mmHg 20%
    03:00 +34°C° 0 mm 4 m/s 752 mmHg 21%
    04:00 +33°C° 0 mm 4 m/s 753 mmHg 21%
    05:00 +33°C° 0 mm 4 m/s 753 mmHg 22%
    06:00 +32°C° 0 mm 4 m/s 753 mmHg 22%
    07:00 +34°C° 0 mm 4 m/s 753 mmHg 19%
    08:00 +36°C° 0 mm 4 m/s 754 mmHg 16%
    09:00 +40°C° 0 mm 4 m/s 754 mmHg 13%
    10:00 +41°C° 0 mm 5 m/s 754 mmHg 12%
    11:00 +43°C° 0 mm 5 m/s 754 mmHg 10%
    12:00 +45°C° 0 mm 5 m/s 753 mmHg 9%
    13:00 +46°C° 0 mm 6 m/s 753 mmHg 9%
    14:00 +46°C° 0 mm 6 m/s 752 mmHg 8%
    15:00 +46°C° 0 mm 6 m/s 752 mmHg 8%
    16:00 +45°C° 0 mm 5 m/s 752 mmHg 8%
    17:00 +43°C° 0 mm 5 m/s 752 mmHg 9%
    18:00 +42°C° 0 mm 4 m/s 752 mmHg 9%
    19:00 +41°C° 0 mm 4 m/s 753 mmHg 10%
    20:00 +40°C° 0 mm 4 m/s 753 mmHg 10%
    21:00 +38°C° 0 mm 4 m/s 753 mmHg 11%
    22:00 +37°C° 0 mm 4 m/s 753 mmHg 11%
    23:00 +37°C° 0 mm 4 m/s 752 mmHg 12%
    Mostrar mais